Devils Lake, ND

6:19 AM CDT on July 26, 2017 (GMT -0500)
Devils Lake Municipal

Weather History for KDVL - December, 2011

Change the Weather History Date:

Wednesday, December 28, 2011

  Actual Average Record
Temperature  
Mean Temperature 21 °F -  
Max Temperature 30 °F 18 °F 46 °F (1980)
Min Temperature 12 °F 0 °F -27 °F (1993)
Degree Days  
Heating Degree Days 44    
Moisture  
Dew Point 19 °F    
Average Humidity 89    
Maximum Humidity 100    
Minimum Humidity 79    
Precipitation  
Precipitation 0.00 in - - ()
Sea Level Pressure  
Sea Level Pressure 29.63 in    
Wind  
Wind Speed 9 mph (SSW)    
Max Wind Speed 17 mph    
Max Gust Speed -    
Visibility 9 miles    
Events      
Averages and records for this station are not official NWS values.
T = Trace of Precipitation, MM = Missing Value Source: NWS Daily Summary

Daily Weather History Graph

Daily Weather History Graph

Search for Another Location

Airport or City:

Trip Planner

Search our weather history database for the weather conditions in past years. The results will help you decide how hot, cold, wet, or windy it might be!

Date:

Astronomy

Dec. 28, 2011 Rise Set
Actual Time 8:25 AM CST 4:48 PM CST
Civil Twilight 7:49 AM CST 5:25 PM CST
Nautical Twilight 7:09 AM CST 6:05 PM CST
Astronomical Twilight 6:31 AM CST 6:42 PM CST
Moon 10:32 AM CST (12/28) 9:48 PM CST (12/28)
Length of Visible Light 9h 36m
Length of Day
8h 23m
Waxing Crescent, 18% of the Moon is Illuminated
Dec 28
Waxing Crescent
Jan 1
First Quarter
Jan 9
Full
Jan 16
Last Quarter
Jan 23
New

Hourly Weather History & Observations

Time (CST) Temp. Windchill Dew Point Humidity Pressure Visibility Wind Dir Wind Speed Gust Speed Precip Events Conditions
12:15 AM 17.6 °F 2.7 °F 14.0 °F 86% 29.74 in 10.0 mi SSE 16.1 mph - N/A   Clear
12:35 AM 17.6 °F 2.7 °F 12.2 °F 79% 29.73 in 10.0 mi SSE 16.1 mph - N/A   Clear
12:55 AM 15.8 °F 0.9 °F 12.2 °F 86% 29.73 in 10.0 mi SSE 15.0 mph - N/A   Clear
1:15 AM 15.8 °F 1.4 °F 12.2 °F 86% 29.72 in 10.0 mi SSE 13.8 mph - N/A   Clear
1:35 AM 17.6 °F 3.2 °F 12.2 °F 79% 29.72 in 10.0 mi SSE 15.0 mph - N/A   Clear
1:55 AM 17.6 °F 2.2 °F 14.0 °F 86% 29.70 in 10.0 mi SSE 17.3 mph - N/A   Clear
2:15 AM 17.6 °F 3.2 °F 14.0 °F 86% 29.70 in 10.0 mi SSE 15.0 mph - N/A   Clear
2:35 AM 17.6 °F 4.3 °F 14.0 °F 86% 29.69 in 10.0 mi SSE 12.7 mph - N/A   Scattered Clouds
2:55 AM 17.6 °F 6.4 °F 14.0 °F 86% 29.69 in 10.0 mi South 9.2 mph - N/A   Mostly Cloudy
3:15 AM 17.6 °F 7.3 °F 14.0 °F 86% 29.69 in 10.0 mi South 8.1 mph - N/A   Mostly Cloudy
3:35 AM 17.6 °F 12.3 °F 14.0 °F 86% 29.69 in 10.0 mi South 3.5 mph - N/A   Clear
3:55 AM 15.8 °F 10.2 °F 14.0 °F 93% 29.68 in 10.0 mi South 3.5 mph - N/A   Clear
4:15 AM 15.8 °F 8.6 °F 15.8 °F 100% 29.68 in 10.0 mi South 4.6 mph - N/A   Clear
4:35 AM 15.8 °F - 12.2 °F 86% 29.67 in 10.0 mi Calm Calm - N/A   Clear
4:55 AM 14.0 °F 8.2 °F 10.4 °F 86% 29.67 in 10.0 mi South 3.5 mph - N/A   Clear
5:15 AM 15.8 °F 10.2 °F 12.2 °F 86% 29.67 in 10.0 mi SSW 3.5 mph - N/A   Clear
5:35 AM 15.8 °F - 12.2 °F 86% 29.66 in 10.0 mi Calm Calm - N/A   Clear
5:55 AM 12.2 °F - 10.4 °F 92% 29.66 in 10.0 mi Calm Calm - N/A   Clear
6:15 AM 15.8 °F - 12.2 °F 86% 29.66 in 10.0 mi Calm Calm - N/A   Clear
6:35 AM 15.8 °F 4.2 °F 12.2 °F 86% 29.67 in 10.0 mi WSW 9.2 mph - N/A   Clear
6:55 AM 17.6 °F 5.7 °F 17.6 °F 100% 29.67 in 10.0 mi WSW 10.4 mph - N/A   Clear
7:15 AM 17.6 °F 7.3 °F 15.8 °F 93% 29.67 in 10.0 mi WSW 8.1 mph - N/A   Clear
7:35 AM 17.6 °F 7.3 °F 15.8 °F 93% 29.67 in 10.0 mi WSW 8.1 mph - N/A   Clear
7:55 AM 17.6 °F 6.4 °F 12.2 °F 79% 29.67 in 10.0 mi West 9.2 mph - N/A   Clear
8:15 AM 17.6 °F 6.4 °F 14.0 °F 86% 29.67 in 10.0 mi WSW 9.2 mph - N/A   Clear
8:35 AM 17.6 °F 6.4 °F 17.6 °F 100% 29.67 in 10.0 mi WSW 9.2 mph - N/A   Clear
8:55 AM 17.6 °F 6.4 °F 15.8 °F 93% 29.67 in 10.0 mi West 9.2 mph - N/A   Clear
9:15 AM 19.4 °F 9.5 °F 17.6 °F 93% 29.66 in 10.0 mi WSW 8.1 mph - N/A   Clear
9:35 AM 21.2 °F 14.9 °F 19.4 °F 93% 29.65 in 10.0 mi WSW 4.6 mph - N/A   Clear
9:55 AM 21.2 °F 16.4 °F 19.4 °F 93% 29.65 in 10.0 mi WSW 3.5 mph - N/A   Clear
10:15 AM 23.0 °F 17.0 °F 21.2 °F 93% 29.66 in 10.0 mi WSW 4.6 mph - N/A   Clear
10:35 AM 24.8 °F 17.9 °F 21.2 °F 86% 29.65 in 10.0 mi WSW 5.8 mph - N/A   Clear
10:55 AM 24.8 °F 17.9 °F 21.2 °F 86% 29.64 in 10.0 mi SW 5.8 mph - N/A   Clear
11:15 AM 24.8 °F 16.9 °F 21.2 °F 86% 29.63 in 10.0 mi WSW 6.9 mph - N/A   Clear
11:35 AM 26.6 °F 18.2 °F 21.2 °F 80% 29.63 in 10.0 mi WSW 8.1 mph - N/A   Clear
11:55 AM 26.6 °F 19.1 °F 23.0 °F 86% 29.61 in 10.0 mi WSW 6.9 mph - N/A   Clear
12:15 PM 26.6 °F 19.1 °F 21.2 °F 80% 29.60 in 10.0 mi WSW 6.9 mph - N/A   Clear
12:35 PM 26.6 °F 18.2 °F 21.2 °F 80% 29.59 in 10.0 mi WSW 8.1 mph - N/A   Clear
12:55 PM 28.4 °F 21.2 °F 23.0 °F 80% 29.58 in 10.0 mi SW 6.9 mph - N/A   Clear
1:15 PM 28.4 °F 23.3 °F 24.8 °F 86% 29.57 in 10.0 mi SW 4.6 mph - N/A   Mostly Cloudy
1:35 PM 28.4 °F 22.2 °F 24.8 °F 86% 29.57 in 10.0 mi WSW 5.8 mph - N/A   Overcast
1:55 PM 28.4 °F 22.2 °F 24.8 °F 86% 29.56 in 10.0 mi WSW 5.8 mph - N/A   Overcast
2:15 PM 28.4 °F 23.3 °F 24.8 °F 86% 29.56 in 10.0 mi SW 4.6 mph - N/A   Overcast
2:35 PM 28.4 °F 22.2 °F 24.8 °F 86% 29.55 in 10.0 mi WSW 5.8 mph - N/A   Overcast
2:55 PM 28.4 °F - 26.6 °F 93% 29.54 in 10.0 mi Calm Calm - N/A   Overcast
3:15 PM 30.2 °F - 26.6 °F 86% 29.53 in 10.0 mi Calm Calm - N/A   Overcast
3:35 PM 30.2 °F - 26.6 °F 86% 29.53 in 10.0 mi Calm Calm - N/A   Overcast
3:55 PM 30.2 °F - 26.6 °F 86% 29.53 in 10.0 mi Calm Calm - N/A   Mostly Cloudy
4:15 PM 30.2 °F - 26.6 °F 86% 29.53 in 3.0 mi Calm Calm - N/A   Overcast
4:35 PM 30.2 °F 24.3 °F 28.4 °F 93% 29.52 in 1.2 mi ESE 5.8 mph - N/A   Overcast
4:55 PM 28.4 °F 23.3 °F 28.4 °F 100% 29.52 in 1.2 mi ESE 4.6 mph - N/A   Overcast
5:15 PM 28.4 °F 22.2 °F 28.4 °F 100% 29.52 in 1.5 mi East 5.8 mph - N/A   Overcast
5:35 PM 28.4 °F 22.2 °F 28.4 °F 100% 29.51 in 3.0 mi East 5.8 mph - N/A   Overcast
5:55 PM 28.4 °F 22.2 °F 28.4 °F 100% 29.51 in 3.0 mi East 5.8 mph - N/A   Overcast
6:15 PM 28.4 °F 22.2 °F 28.4 °F 100% 29.51 in 2.0 mi East 5.8 mph - N/A   Overcast
6:35 PM 28.4 °F 22.2 °F 28.4 °F 100% 29.50 in 2.5 mi East 5.8 mph - N/A   Overcast
6:55 PM 28.4 °F 24.6 °F 28.4 °F 100% 29.50 in 3.0 mi East 3.5 mph - N/A   Overcast
7:15 PM 28.4 °F 24.6 °F 26.6 °F 93% 29.49 in 5.0 mi East 3.5 mph - N/A   Overcast
7:35 PM 28.4 °F 24.6 °F 26.6 °F 93% 29.49 in 3.0 mi East 3.5 mph - N/A   Overcast
7:55 PM 28.4 °F 23.3 °F 26.6 °F 93% 29.48 in 2.5 mi East 4.6 mph - N/A   Overcast
8:15 PM 28.4 °F 23.3 °F 28.4 °F 100% 29.48 in 2.5 mi East 4.6 mph - N/A   Overcast
8:35 PM 28.4 °F 20.4 °F 26.6 °F 93% 29.48 in 4.0 mi NE 8.1 mph - N/A   Overcast
8:55 PM 28.4 °F 21.2 °F 28.4 °F 100% 29.48 in 5.0 mi NE 6.9 mph - N/A   Overcast
9:15 PM 28.4 °F 21.2 °F 28.4 °F 100% 29.49 in 5.0 mi NNE 6.9 mph - N/A   Overcast
9:35 PM 28.4 °F 20.4 °F 28.4 °F 100% 29.50 in 4.0 mi North 8.1 mph - N/A   Overcast
9:55 PM 28.4 °F 19.1 °F 26.6 °F 93% 29.51 in 8.0 mi North 10.4 mph - N/A   Overcast
10:15 PM 28.4 °F 19.1 °F 26.6 °F 93% 29.51 in 9.0 mi North 10.4 mph - N/A   Overcast
10:35 PM 26.6 °F 16.8 °F 26.6 °F 100% 29.52 in 4.0 mi North 10.4 mph - N/A   Overcast
10:55 PM 26.6 °F 16.8 °F 26.6 °F 100% 29.53 in 8.0 mi North 10.4 mph - N/A   Overcast
11:15 PM 26.6 °F 15.7 °F 26.6 °F 100% 29.54 in 10.0 mi North 12.7 mph - N/A   Overcast
11:35 PM 26.6 °F 16.2 °F 26.6 °F 100% 29.54 in 10.0 mi North 11.5 mph - N/A   Overcast
11:55 PM 26.6 °F 16.2 °F 26.6 °F 100% 29.54 in 10.0 mi North 11.5 mph - N/A   Overcast